FW4844 Weather Reports


Display with metric or nautical units.
time (UTC)temp
F
wind
direction
speed
MPH
gust
MPH
rain 1hr
in
rain 24hr
in
rain mn
in
humidity
%
barometer
mb
20260510150349 45 273 7.0 13.0 0.00 0.22 0.21 93 1009.7
20260510145849 45 234 6.0 15.0 0.00 0.22 0.21 94 1009.6
20260510145614 45 290 6.0 15.0 0.00 0.22 0.21 95 1009.6
20260510144848 45 260 6.0 14.0 0.00 0.22 0.21 96 1009.6
20260510144349 45 229 6.0 15.0 0.00 0.22 0.21 96 1009.6
20260510143849 45 271 6.0 16.0 0.00 0.22 0.21 97 1009.6
20260510143611 45 281 6.0 16.0 0.00 0.22 0.21 97 1009.6
20260510142851 45 244 6.0 15.0 0.01 0.22 0.21 97 1009.4
20260510142349 45 355 7.0 18.0 0.02 0.22 0.21 97 1009.5
20260510142118 45 287 7.0 20.0 0.04 0.22 0.21 98 1009.3
20260510141347 46 317 6.0 20.0 0.05 0.22 0.21 98 1009.4
20260510140846 46 242 5.0 12.0 0.05 0.22 0.21 98 1009.3
20260510135845 43 283 6.0 17.0 0.06 0.22 0.21 97 1009.2
20260510135345 43 257 7.0 16.0 0.06 0.22 0.21 97 1009.1
20260510134845 45 246 6.0 16.0 0.06 0.22 0.21 98 1009.0
20260510134345 48 236 3.0 15.0 0.06 0.22 0.21 98 1008.9
20260510133845 49 281 3.0 8.0 0.06 0.22 0.21 98 1008.7
20260510133345 49 232 3.0 6.0 0.06 0.22 0.21 98 1008.6
20260510132845 48 229 4.0 8.0 0.05 0.21 0.20 98 1008.5
20260510132612 48 238 4.0 9.0 0.04 0.20 0.19 98 1008.5
20260510132107 48 220 4.0 9.0 0.02 0.18 0.18 98 1008.5
20260510131345 48 220 3.0 8.0 0.01 0.17 0.16 98 1008.6
20260510130845 48 210 3.0 6.0 0.01 0.17 0.16 98 1008.4
20260510130345 48 226 2.0 6.0 0.00 0.16 0.15 98 1008.5
20260510125845 48 190 2.0 4.0 0.00 0.16 0.15 98 1008.4
20260510125347 48 211 2.0 5.0 0.00 0.16 0.15 98 1008.0
20260510124844 48 212 3.0 5.0 0.00 0.16 0.15 98 1008.1
20260510124345 48 209 2.0 5.0 0.00 0.16 0.15 98 1008.2
20260510123845 48 217 2.0 4.0 0.00 0.16 0.15 98 1008.2
20260510123345 48 224 2.0 4.0 0.00 0.16 0.15 98 1008.0
20260510122845 48 225 2.0 5.0 0.00 0.16 0.15 98 1008.0
20260510122345 47 229 3.0 6.0 0.00 0.16 0.15 98 1008.1
20260510121845 47 227 2.0 6.0 0.00 0.16 0.15 98 1008.1
20260510121345 47 208 1.0 4.0 0.00 0.16 0.15 98 1008.0
20260510120844 47 179 0.0 2.0 0.00 0.16 0.15 98 1007.9
20260510120344 47 179 0.0 2.0 0.00 0.16 0.15 98 1007.8
20260510115845 47 179 1.0 2.0 0.00 0.16 0.15 98 1007.9
20260510115606 47 179 1.0 2.0 0.00 0.16 0.15 98 1007.9
20260510114844 47 179 1.0 3.0 0.00 0.16 0.15 98 1007.9
20260510114605 47 179 0.0 3.0 0.00 0.16 0.15 98 1008.0
20260510113844 46 178 0.0 2.0 0.00 0.16 0.15 98 1008.1
20260510113343 46 178 1.0 3.0 0.00 0.16 0.15 98 1008.0
20260510113113 46 178 2.0 3.0 0.00 0.16 0.15 98 1007.9
20260510112342 46 178 2.0 3.0 0.00 0.16 0.15 98 1007.7
20260510111840 46 175 1.0 3.0 0.00 0.16 0.15 98 1007.7
20260510111342 46 173 0.0 1.0 0.00 0.16 0.15 98 1007.6
20260510110842 46 173 0.0 2.0 0.00 0.16 0.15 98 1007.4
20260510110339 46 173 1.0 2.0 0.00 0.16 0.15 98 1007.4
20260510105837 46 173 0.0 2.0 0.00 0.16 0.15 98 1007.4
20260510105337 45 172 0.0 2.0 0.00 0.16 0.15 98 1007.4
20260510104836 45 173 0.0 2.0 0.00 0.16 0.15 98 1007.3
20260510104337 45 173 0.0 1.0 0.00 0.16 0.15 98 1007.1
20260510104059 45 173 0.0 2.0 0.00 0.16 0.15 98 1007.1
20260510103054 44 173 1.0 5.0 0.00 0.16 0.15 98 1006.9
20260510101830 45 286 1.0 3.0 0.00 0.16 0.15 98 1006.9
20260510101328 44 286 1.0 4.0 0.00 0.16 0.15 98 1006.8
20260510100821 44 287 2.0 4.0 0.00 0.16 0.15 98 1006.6
20260510100318 43 289 3.0 8.0 0.00 0.16 0.15 98 1006.7
20260510095819 43 235 2.0 8.0 0.00 0.16 0.15 98 1006.8
20260510095318 42 251 2.0 4.0 0.00 0.16 0.15 98 1006.7
20260510094818 43 271 2.0 4.0 0.00 0.16 0.15 98 1006.7
20260510094319 43 271 2.0 4.0 0.00 0.16 0.15 98 1006.6
20260510093819 44 227 2.0 5.0 0.00 0.16 0.15 98 1006.4
20260510093537 44 226 2.0 5.0 0.00 0.16 0.15 98 1006.0
20260510093036 44 242 2.0 5.0 0.00 0.16 0.15 98 1006.1
20260510092316 44 244 2.0 5.0 0.00 0.16 0.15 98 1006.2
20260510091816 44 247 2.0 4.0 0.00 0.16 0.15 98 1006.5
20260510091314 44 246 2.0 3.0 0.00 0.16 0.15 98 1006.5
20260510090814 44 246 1.0 3.0 0.00 0.16 0.15 98 1006.4
20260510090316 45 246 1.0 3.0 0.00 0.16 0.15 98 1006.4
20260510085813 44 246 0.0 2.0 0.00 0.16 0.15 98 1006.4
20260510085313 44 246 0.0 1.0 0.00 0.16 0.15 98 1006.4
20260510084807 44 246 1.0 3.0 0.00 0.16 0.15 98 1006.2
20260510084521 45 246 1.0 3.0 0.00 0.16 0.15 98 1006.1
20260510083751 44 246 2.0 4.0 0.00 0.16 0.15 98 1006.1
20260510083511 43 247 1.0 3.0 0.00 0.16 0.15 98 1006.0
20260510082739 43 282 0.0 2.0 0.00 0.16 0.15 98 1006.0
20260510082229 43 282 0.0 2.0 0.00 0.16 0.15 98 1005.9
20260510081723 43 282 0.0 2.0 0.00 0.16 0.15 98 1006.0
20260510081219 43 282 0.0 2.0 0.00 0.16 0.15 98 1005.9
20260510080159 44 282 1.0 3.0 0.00 0.16 0.15 98 1005.7
20260510075653 44 282 1.0 2.0 0.00 0.16 0.15 98 1005.5
20260510075143 45 282 0.0 1.0 0.00 0.16 0.15 98 1005.6
20260510074637 45 282 0.0 2.0 0.00 0.16 0.15 98 1005.7
20260510074132 45 282 1.0 2.0 0.01 0.16 0.15 98 1005.7
20260510073622 46 282 1.0 3.0 0.01 0.16 0.15 98 1005.8
20260510073116 46 282 2.0 3.0 0.03 0.16 0.15 98 1005.8
20260510072609 46 282 1.0 2.0 0.03 0.16 0.15 98 1006.2
20260510072059 46 282 1.0 2.0 0.04 0.16 0.15 98 1006.5
20260510071814 46 282 1.0 2.0 0.04 0.16 0.15 98 1006.5
20260510071048 46 282 0.0 1.0 0.07 0.16 0.15 98 1006.4
20260510070537 47 282 0.0 1.0 0.08 0.16 0.15 98 1006.5
20260510070031 47 282 1.0 2.0 0.10 0.16 0.15 98 1006.2
20260510065747 47 282 0.0 2.0 0.10 0.16 0.15 98 1006.2
20260510065016 47 283 1.0 3.0 0.11 0.16 0.15 98 1006.4
20260510064509 47 283 2.0 5.0 0.12 0.16 0.15 98 1006.4
20260510064003 47 288 2.0 5.0 0.12 0.15 0.14 98 1006.5
20260510063452 47 265 2.0 5.0 0.12 0.14 0.13 98 1006.5
20260510062947 47 217 2.0 5.0 0.11 0.13 0.12 98 1006.4
20260510062440 47 217 2.0 5.0 0.11 0.12 0.12 98 1006.4
20260510062150 47 215 3.0 5.0 0.11 0.12 0.11 98 1006.6
20260510061424 47 234 3.0 8.0 0.10 0.11 0.11 98 1006.7
20260510060918 47 225 4.0 8.0 0.08 0.09 0.08 98 1006.8
20260510060407 47 257 4.0 10.0 0.07 0.08 0.07 98 1006.7
20260510055902 47 242 3.0 9.0 0.05 0.06 0.05 98 1006.6
20260510055618 47 246 2.0 4.0 0.05 0.06 0.05 98 1006.5
20260510054846 47 225 2.0 5.0 0.04 0.05 0.04 98 1006.4
20260510054340 47 226 3.0 5.0 0.03 0.04 0.03 98 1006.4
20260510053323 47 212 3.0 7.0 0.01 0.02 0.01 98 1006.2
20260510052822 47 202 3.0 7.0 0.01 0.02 0.01 98 1006.2
20260510052322 47 228 4.0 7.0 0.00 0.01 0.00 98 1006.2
20260510051822 47 223 4.0 7.0 0.00 0.01 0.00 98 1006.1
20260510051322 47 221 4.0 7.0 0.00 0.01 0.00 98 1006.2
20260510050822 47 210 3.0 7.0 0.00 0.01 0.00 98 1006.1
20260510050322 47 184 3.0 7.0 0.00 0.01 0.00 98 1006.1
20260510050045 47 203 2.0 6.0 0.00 0.01 0.00 98 1006.2
20260510045322 47 211 3.0 5.0 0.00 0.01 0.00 98 1006.4
20260510044822 47 229 3.0 5.0 0.00 0.01 0.00 98 1006.2
20260510044322 47 202 3.0 5.0 0.00 0.01 0.00 98 1006.4
20260510043822 47 192 2.0 5.0 0.00 0.01 0.00 98 1006.2
20260510043322 47 218 3.0 8.0 0.00 0.01 0.00 98 1006.2
20260510042823 47 219 3.0 8.0 0.00 0.01 0.00 98 1006.4
20260510042323 47 205 4.0 10.0 0.00 0.01 0.00 98 1006.4
20260510041813 47 207 4.0 10.0 0.00 0.01 0.00 98 1006.2
20260510041306 47 215 4.0 9.0 0.00 0.01 0.00 98 1006.2
20260510040801 47 185 3.0 9.0 0.00 0.01 0.00 98 1006.1
20260510040251 47 200 4.0 10.0 0.00 0.01 0.00 98 1006.2
20260510035745 47 163 4.0 10.0 0.00 0.01 0.01 98 1006.4
20260510035239 47 186 3.0 7.0 0.00 0.01 0.01 98 1006.4
20260510034952 47 173 3.0 9.0 0.00 0.01 0.01 98 1006.2
20260510034443 47 170 3.0 8.0 0.00 0.01 0.01 98 1006.0
20260510033717 47 187 3.0 7.0 0.00 0.01 0.01 98 1005.8
20260510033207 47 153 3.0 6.0 0.00 0.01 0.01 98 1005.8
20260510032701 47 166 3.0 6.0 0.00 0.01 0.01 98 1005.8
20260510032155 47 144 3.0 8.0 0.00 0.01 0.01 98 1005.9
20260510031650 47 162 3.0 8.0 0.00 0.01 0.01 98 1005.9
20260510031148 47 163 3.0 7.0 0.00 0.01 0.01 98 1005.8
20260510030908 47 146 3.0 7.0 0.00 0.01 0.01 98 1006.0
20260510030144 47 194 3.0 7.0 0.00 0.01 0.01 98 1006.1
20260510025642 47 190 2.0 8.0 0.00 0.01 0.01 98 1006.2
20260510025140 46 186 2.0 8.0 0.00 0.01 0.01 98 1006.4
20260510024640 46 196 3.0 7.0 0.00 0.01 0.01 98 1006.4
20260510024140 46 200 4.0 11.0 0.00 0.01 0.01 98 1006.2
20260510023904 46 197 4.0 11.0 0.00 0.01 0.01 98 1006.2
20260510023138 46 212 3.0 7.0 0.00 0.01 0.01 98 1006.1
20260510022638 46 202 2.0 7.0 0.00 0.01 0.01 98 1006.2
20260510022138 46 174 2.0 8.0 0.00 0.01 0.01 98 1006.2
20260510021638 46 180 3.0 9.0 0.00 0.01 0.01 98 1006.2
20260510021136 46 168 3.0 9.0 0.00 0.01 0.01 98 1006.5
20260510020633 46 161 2.0 6.0 0.00 0.01 0.01 98 1006.4
20260510020134 45 166 2.0 6.0 0.00 0.01 0.01 98 1006.4
20260510015629 45 192 1.0 3.0 0.00 0.01 0.01 98 1006.5
20260510015122 45 195 1.0 3.0 0.00 0.01 0.01 98 1006.5
20260510014612 45 194 0.0 2.0 0.00 0.01 0.01 98 1006.5
20260510014106 45 194 0.0 2.0 0.00 0.01 0.01 98 1006.2
20260510013559 45 194 0.0 2.0 0.00 0.01 0.01 97 1006.2
20260510013054 45 194 0.0 2.0 0.00 0.01 0.01 97 1006.2
20260510012552 45 194 1.0 2.0 0.00 0.01 0.01 97 1006.4
20260510012052 45 194 0.0 2.0 0.00 0.01 0.01 97 1006.4
20260510011552 45 194 0.0 2.0 0.00 0.01 0.01 97 1006.4
20260510011052 45 194 0.0 1.0 0.00 0.01 0.01 97 1006.5
20260510010550 45 194 0.0 1.0 0.00 0.01 0.01 98 1006.2
20260510010050 45 194 0.0 1.0 0.00 0.01 0.01 97 1006.2
20260510005550 45 194 0.0 1.0 0.00 0.01 0.01 98 1006.2
20260510005050 45 194 0.0 2.0 0.00 0.01 0.01 97 1006.4
20260510004551 45 194 0.0 2.0 0.00 0.01 0.01 97 1006.4
20260510004049 45 194 1.0 3.0 0.00 0.01 0.01 97 1006.2
20260510003549 45 194 1.0 3.0 0.00 0.01 0.01 97 1006.1
20260510002542 45 198 0.0 2.0 0.00 0.01 0.01 97 1006.2
20260510002043 45 198 1.0 3.0 0.00 0.01 0.01 97 1006.4
20260510001543 45 198 1.0 3.0 0.00 0.01 0.01 97 1006.4
20260510001040 45 199 1.0 3.0 0.00 0.01 0.01 97 1006.5
20260510000541 45 199 1.0 2.0 0.00 0.01 0.01 97 1006.5
20260510000305 45 199 1.0 3.0 0.00 0.01 0.01 97 1006.5
20260509235803 45 199 1.0 3.0 0.00 0.01 0.01 97 1006.4
20260509235041 45 199 1.0 2.0 0.00 0.01 0.01 97 1006.4
20260509234541 45 199 1.0 2.0 0.00 0.01 0.01 97 1006.2
20260509234040 45 199 0.0 3.0 0.00 0.01 0.01 97 1006.1
20260509233539 45 199 0.0 3.0 0.00 0.01 0.01 97 1006.1
20260509233039 45 199 0.0 4.0 0.00 0.01 0.01 97 1006.0
20260509232539 45 199 0.0 4.0 0.00 0.01 0.01 97 1006.0
20260509232039 45 199 0.0 1.0 0.00 0.01 0.01 97 1005.9
20260509231539 45 199 0.0 2.0 0.00 0.01 0.01 97 1006.0
20260509231040 45 199 1.0 2.0 0.00 0.01 0.01 97 1006.0
20260509230539 45 199 1.0 2.0 0.00 0.01 0.01 97 1006.0
20260509230040 45 199 0.0 1.0 0.00 0.01 0.01 97 1006.0
20260509225539 45 199 0.0 1.0 0.00 0.01 0.01 97 1006.0
20260509225039 45 199 1.0 3.0 0.00 0.01 0.01 97 1006.0
20260509224806 45 199 2.0 5.0 0.01 0.01 0.01 97 1006.0
20260509224039 45 199 2.0 5.0 0.01 0.01 0.01 97 1005.9
20260509223540 45 209 2.0 9.0 0.01 0.01 0.01 97 1005.9
20260509223041 45 188 2.0 9.0 0.01 0.01 0.01 97 1005.9
20260509222539 45 194 1.0 4.0 0.01 0.01 0.01 97 1006.0
20260509222037 45 157 1.0 5.0 0.01 0.01 0.01 97 1006.0
20260509221536 45 150 2.0 6.0 0.01 0.01 0.01 97 1006.0
20260509221035 44 166 2.0 6.0 0.01 0.01 0.01 97 1006.2
20260509220535 44 191 1.0 4.0 0.01 0.01 0.01 97 1006.1
20260509220034 44 190 2.0 4.0 0.01 0.01 0.01 97 1006.2
20260509215759 44 190 2.0 3.0 0.01 0.01 0.01 97 1006.4
20260509215034 44 192 1.0 3.0 0.01 0.01 0.01 97 1006.5
20260509214531 44 174 0.0 2.0 0.00 0.00 0.00 97 1006.5
20260509214031 44 174 0.0 2.0 0.00 0.00 0.00 97 1006.5
20260509213800 44 174 0.0 3.0 0.00 0.00 0.00 97 1006.5
20260509213029 44 174 1.0 3.0 0.00 0.00 0.00 97 1006.6
20260509212530 44 173 1.0 5.0 0.00 0.00 0.00 97 1006.6
20260509211518 44 153 1.0 4.0 0.00 0.00 0.00 96 1006.7
20260509211008 44 144 1.0 7.0 0.00 0.00 0.00 96 1006.7
20260509210502 44 144 1.0 7.0 0.00 0.00 0.00 96 1006.8
20260509205956 44 173 1.0 3.0 0.00 0.00 0.00 96 1006.8
20260509205447 44 173 0.0 3.0 0.00 0.00 0.00 96 1006.8
20260509204940 44 173 0.0 2.0 0.00 0.00 0.00 96 1006.8
20260509204434 44 173 0.0 3.0 0.00 0.00 0.00 96 1006.7
20260509204148 44 173 1.0 3.0 0.00 0.00 0.00 96 1006.8
20260509203418 44 174 1.0 3.0 0.00 0.00 0.00 96 1006.8
20260509202912 44 171 1.0 4.0 0.00 0.00 0.00 96 1006.8
20260509202402 44 171 1.0 4.0 0.00 0.00 0.00 96 1006.9
20260509201856 44 153 1.0 6.0 0.00 0.00 0.00 96 1006.9
20260509201350 44 153 1.0 6.0 0.00 0.00 0.00 96 1006.9
20260509200840 44 156 1.0 4.0 0.00 0.00 0.00 96 1007.0
20260509200333 44 141 2.0 4.0 0.00 0.00 0.00 95 1007.0
20260509195828 44 133 1.0 3.0 0.00 0.00 0.00 95 1007.1
20260509195542 44 131 2.0 5.0 0.00 0.00 0.00 95 1007.3
20260509194812 44 186 2.0 8.0 0.00 0.00 0.00 95 1007.2
20260509194306 44 177 2.0 8.0 0.00 0.00 0.00 95 1007.3
20260509193755 44 140 3.0 7.0 0.00 0.00 0.00 95 1007.2
20260509193250 44 217 3.0 7.0 0.00 0.00 0.00 95 1007.3
20260509192744 44 198 2.0 6.0 0.00 0.00 0.00 95 1007.3
20260509192234 44 161 2.0 5.0 0.00 0.00 0.00 95 1007.2
20260509191728 44 170 1.0 5.0 0.00 0.00 0.00 95 1007.2
20260509191222 44 147 1.0 8.0 0.00 0.00 0.00 95 1007.2
20260509190936 44 149 1.0 8.0 0.00 0.00 0.00 94 1007.3
20260509190206 44 153 2.0 5.0 0.00 0.00 0.00 94 1007.4
20260509185700 44 178 2.0 5.0 0.00 0.00 0.00 94 1007.5
20260509185150 44 133 2.0 4.0 0.00 0.00 0.00 94 1007.4
20260509184644 44 132 1.0 4.0 0.00 0.00 0.00 94 1007.5
20260509184138 44 144 2.0 4.0 0.00 0.00 0.00 94 1007.6
20260509183628 44 143 1.0 5.0 0.00 0.00 0.00 93 1007.6
20260509183122 44 155 2.0 5.0 0.00 0.00 0.00 93 1007.6
20260509182846 44 151 2.0 6.0 0.00 0.00 0.00 93 1007.6
20260509182106 44 155 2.0 8.0 0.00 0.00 0.00 92 1007.6
20260509181600 44 128 1.0 8.0 0.00 0.00 0.00 93 1007.6
20260509181054 44 136 1.0 6.0 0.00 0.00 0.00 93 1007.6
20260509180547 44 136 1.0 6.0 0.00 0.00 0.00 92 1007.7
20260509180038 44 113 1.0 4.0 0.00 0.00 0.00 92 1007.7
20260509175532 43 111 1.0 4.0 0.00 0.00 0.00 93 1007.7
20260509175249 43 142 1.0 3.0 0.00 0.00 0.00 92 1007.8
20260509174516 43 141 1.0 3.0 0.00 0.00 0.00 93 1007.8
20260509174010 43 141 1.0 3.0 0.00 0.00 0.00 92 1007.9
20260509173500 43 140 1.0 3.0 0.00 0.00 0.00 92 1007.9
20260509172954 43 140 0.0 3.0 0.00 0.00 0.00 92 1007.9
20260509172448 42 140 0.0 2.0 0.00 0.00 0.00 91 1008.0
20260509171938 42 140 1.0 3.0 0.00 0.00 0.00 91 1008.0
20260509171431 42 140 1.0 4.0 0.00 0.00 0.00 90 1008.1
20260509170926 43 140 1.0 4.0 0.00 0.00 0.00 90 1008.1
20260509170415 42 143 1.0 3.0 0.00 0.00 0.00 90 1008.2
20260509165910 43 143 1.0 3.0 0.00 0.00 0.00 90 1008.4
20260509165404 42 143 1.0 3.0 0.00 0.00 0.00 90 1008.4
20260509164348 43 148 1.0 3.0 0.00 0.00 0.00 90 1008.4
20260509163843 43 145 1.0 4.0 0.00 0.00 0.00 90 1008.5
20260509163332 43 126 2.0 6.0 0.00 0.00 0.00 89 1008.6
20260509162541 43 157 2.0 5.0 0.00 0.00 0.00 89 1008.7
20260509161810 43 157 2.0 5.0 0.00 0.00 0.00 88 1008.8
20260509161304 43 157 1.0 6.0 0.00 0.00 0.00 87 1008.9
20260509160803 43 159 2.0 6.0 0.00 0.00 0.00 88 1008.9
20260509160529 43 126 2.0 7.0 0.00 0.00 0.00 86 1008.9
20260509160032 44 144 2.0 7.0 0.00 0.00 0.00 85 1009.0
20260509155532 44 142 3.0 8.0 0.00 0.00 0.00 85 1009.0
20260509154801 44 141 2.0 8.0 0.00 0.00 0.00 84 1009.0
20260509154301 44 137 2.0 5.0 0.00 0.00 0.00 85 1008.9
20260509153301 44 130 2.0 7.0 0.00 0.00 0.00 82 1009.1
20260509152803 44 124 1.0 6.0 0.00 0.00 0.00 81 1009.1
20260509152528 44 148 1.0 6.0 0.00 0.00 0.00 79 1009.2
20260509151759 44 126 1.0 5.0 0.00 0.00 0.00 79 1009.2
20260509151259 44 144 1.0 5.0 0.00 0.00 0.00 78 1009.3
20260509150800 45 134 2.0 7.0 0.00 0.00 0.00 77 1009.3